Location: Castiglione Fibocchi
(43.5333°N, 11.7667°E)
Time: 17:45:04
(UTC+00:00)

CZ-4C R/B - Pass Details

Date: 15 August 2020
Orbit: 409 x 491 km, 97.7° (Epoch: 17 September)

Event Time Altitude Azimuth Distance (km) Brightness Sun altitude
Exits shadow 02:20:52 - 145° (SE) 1,993 6.1 -18.9°
Reaches altitude 10° 02:21:59 10° 140° (SE) 1,539 5.6 -18.8°
Maximum altitude 02:25:03 37° 72° (ENE) 715 4.4 -18.4°
Drops below altitude 10° 02:28:13 10° 4° (N) 1,595 6.3 -17.9°
Sets 02:30:23 0° 356° (N) 2,489 7.2 -17.6°
